Year,Month,Day,Hour,Minute,Value (Times are PST for temperature in C)
2010,07,10,00,00,19.20
2010,07,10,00,01,19.20
2010,07,10,00,02,19.20
2010,07,10,00,03,19.20
2010,07,10,00,04,19.20
2010,07,10,00,05,19.20
2010,07,10,00,06,19.10
2010,07,10,00,07,19.10
2010,07,10,00,08,19.10
2010,07,10,00,09,19.10
2010,07,10,00,10,19.10
2010,07,10,00,11,19.10
2010,07,10,00,12,19.10
2010,07,10,00,13,19.10
2010,07,10,00,14,19.10
2010,07,10,00,15,19.10
2010,07,10,00,16,19.10
2010,07,10,00,17,19.10
2010,07,10,00,18,19.10
2010,07,10,00,19,19.10
2010,07,10,00,20,19.10
2010,07,10,00,21,19.00
2010,07,10,00,22,19.00
2010,07,10,00,23,19.00
2010,07,10,00,24,19.00
2010,07,10,00,25,19.00
2010,07,10,00,26,18.90
2010,07,10,00,27,18.90
2010,07,10,00,28,18.90
2010,07,10,00,29,18.90
2010,07,10,00,30,18.90
2010,07,10,00,31,18.90
2010,07,10,00,32,18.90
2010,07,10,00,33,18.90
2010,07,10,00,34,18.90
2010,07,10,00,35,18.80
2010,07,10,00,36,18.80
2010,07,10,00,37,18.80
2010,07,10,00,38,18.80
2010,07,10,00,39,18.80
2010,07,10,00,40,18.80
2010,07,10,00,41,18.80
2010,07,10,00,42,18.80
2010,07,10,00,43,18.80
2010,07,10,00,44,18.80
2010,07,10,00,45,18.80
2010,07,10,00,46,18.80
2010,07,10,00,47,18.80
2010,07,10,00,48,18.80
2010,07,10,00,49,18.80
2010,07,10,00,50,18.80
2010,07,10,00,51,18.80
2010,07,10,00,52,18.80
2010,07,10,00,53,18.80
2010,07,10,00,54,18.80
2010,07,10,00,55,18.80
2010,07,10,00,56,18.80
2010,07,10,00,57,18.80
2010,07,10,00,58,18.80
2010,07,10,00,59,18.80
2010,07,10,01,00,18.80
2010,07,10,01,01,18.70
2010,07,10,01,02,18.70
2010,07,10,01,03,18.70
2010,07,10,01,04,18.70
2010,07,10,01,05,18.70
2010,07,10,01,06,18.70
2010,07,10,01,07,18.60
2010,07,10,01,08,18.60
2010,07,10,01,09,18.60
2010,07,10,01,10,18.60
2010,07,10,01,11,18.50
2010,07,10,01,12,18.50
2010,07,10,01,13,18.40
2010,07,10,01,14,18.40
2010,07,10,01,15,18.40
2010,07,10,01,16,18.40
2010,07,10,01,17,18.30
2010,07,10,01,18,18.30
2010,07,10,01,19,18.30
2010,07,10,01,20,18.30
2010,07,10,01,21,18.30
2010,07,10,01,22,18.20
2010,07,10,01,23,18.20
2010,07,10,01,24,18.20
2010,07,10,01,25,18.20
2010,07,10,01,26,18.10
2010,07,10,01,27,18.10
2010,07,10,01,28,18.10
2010,07,10,01,29,18.10
2010,07,10,01,30,18.00
2010,07,10,01,31,18.00
2010,07,10,01,32,17.90
2010,07,10,01,33,17.90
2010,07,10,01,34,17.90
2010,07,10,01,35,17.80
2010,07,10,01,36,17.80
2010,07,10,01,37,17.80
2010,07,10,01,38,17.80
2010,07,10,01,39,17.70
2010,07,10,01,40,17.70
2010,07,10,01,41,17.70
2010,07,10,01,42,17.70
2010,07,10,01,43,17.70
2010,07,10,01,44,17.60
2010,07,10,01,45,17.60
2010,07,10,01,46,17.60
2010,07,10,01,47,17.60
2010,07,10,01,48,17.50
2010,07,10,01,49,17.50
2010,07,10,01,50,17.40
2010,07,10,01,51,17.40
2010,07,10,01,52,17.40
2010,07,10,01,53,17.30
2010,07,10,01,54,17.30
2010,07,10,01,55,17.30
2010,07,10,01,56,17.30
2010,07,10,01,57,17.20
2010,07,10,01,58,17.20
2010,07,10,01,59,17.20
2010,07,10,02,00,17.20
2010,07,10,02,01,17.10
2010,07,10,02,02,17.10
2010,07,10,02,03,17.10
2010,07,10,02,04,17.10
2010,07,10,02,05,17.00
2010,07,10,02,06,17.00
2010,07,10,02,07,17.00
2010,07,10,02,08,16.90
2010,07,10,02,09,16.90
2010,07,10,02,10,16.90
2010,07,10,02,11,16.80
2010,07,10,02,12,16.80
2010,07,10,02,13,16.80
2010,07,10,02,14,16.80
2010,07,10,02,15,16.70
2010,07,10,02,16,16.70
2010,07,10,02,17,16.70
2010,07,10,02,18,16.70
2010,07,10,02,19,16.60
2010,07,10,02,20,16.60
2010,07,10,02,21,16.60
2010,07,10,02,22,16.50
2010,07,10,02,23,16.50
2010,07,10,02,24,16.50
2010,07,10,02,25,16.40
2010,07,10,02,26,16.40
2010,07,10,02,27,16.40
2010,07,10,02,28,16.40
2010,07,10,02,29,16.30
2010,07,10,02,30,16.30
2010,07,10,02,31,16.30
2010,07,10,02,32,16.30
2010,07,10,02,33,16.20
2010,07,10,02,34,16.20
2010,07,10,02,35,16.20
2010,07,10,02,36,16.20
2010,07,10,02,37,16.20
2010,07,10,02,38,16.10
2010,07,10,02,39,16.10
2010,07,10,02,40,16.10
2010,07,10,02,41,16.10
2010,07,10,02,42,16.00
2010,07,10,02,43,16.00
2010,07,10,02,44,16.00
2010,07,10,02,45,15.90
2010,07,10,02,46,15.90
2010,07,10,02,47,15.90
2010,07,10,02,48,15.90
2010,07,10,02,49,15.90
2010,07,10,02,50,15.80
2010,07,10,02,51,15.80
2010,07,10,02,52,15.80
2010,07,10,02,53,15.80
2010,07,10,02,54,15.80
2010,07,10,02,55,15.80
2010,07,10,02,56,15.80
2010,07,10,02,57,15.80
2010,07,10,02,58,15.80
2010,07,10,02,59,15.70
2010,07,10,03,00,15.70
2010,07,10,03,01,15.70
2010,07,10,03,02,15.70
2010,07,10,03,03,15.70
2010,07,10,03,04,15.70
2010,07,10,03,05,15.70
2010,07,10,03,06,15.70
2010,07,10,03,07,15.70
2010,07,10,03,08,15.70
2010,07,10,03,09,15.70
2010,07,10,03,10,15.70
2010,07,10,03,11,15.70
2010,07,10,03,12,15.80
2010,07,10,03,13,15.80
2010,07,10,03,14,15.80
2010,07,10,03,15,15.80
2010,07,10,03,16,15.80
2010,07,10,03,17,15.80
2010,07,10,03,18,15.80
2010,07,10,03,19,15.80
2010,07,10,03,20,15.80
2010,07,10,03,21,15.80
2010,07,10,03,22,15.80
2010,07,10,03,23,15.80
2010,07,10,03,24,15.80
2010,07,10,03,25,15.80
2010,07,10,03,26,15.80
2010,07,10,03,27,15.80
2010,07,10,03,28,15.80
2010,07,10,03,29,15.80
2010,07,10,03,30,15.80
2010,07,10,03,31,15.80
2010,07,10,03,32,15.80
2010,07,10,03,33,15.90
2010,07,10,03,34,15.90
2010,07,10,03,35,15.90
2010,07,10,03,36,15.90
2010,07,10,03,37,15.90
2010,07,10,03,38,15.90
2010,07,10,03,39,15.90
2010,07,10,03,40,15.90
2010,07,10,03,41,15.90
2010,07,10,03,42,15.90
2010,07,10,03,43,15.90
2010,07,10,03,44,15.90
2010,07,10,03,45,15.90
2010,07,10,03,46,15.90
2010,07,10,03,47,15.90
2010,07,10,03,48,15.80
2010,07,10,03,49,15.80
2010,07,10,03,50,15.80
2010,07,10,03,51,15.80
2010,07,10,03,52,15.80
2010,07,10,03,53,15.80
2010,07,10,03,54,15.80
2010,07,10,03,55,15.70
2010,07,10,03,56,15.70
2010,07,10,03,57,15.70
2010,07,10,03,58,15.70
2010,07,10,03,59,15.70
2010,07,10,04,00,15.60
2010,07,10,04,01,15.60
2010,07,10,04,02,15.60
2010,07,10,04,03,15.60
2010,07,10,04,04,15.50
2010,07,10,04,05,15.50
2010,07,10,04,06,15.50
2010,07,10,04,07,15.40
2010,07,10,04,08,15.40
2010,07,10,04,09,15.40
2010,07,10,04,10,15.40
2010,07,10,04,11,15.30
2010,07,10,04,12,15.30
2010,07,10,04,13,15.30
2010,07,10,04,14,15.20
2010,07,10,04,15,15.20
2010,07,10,04,16,15.20
2010,07,10,04,17,15.10
2010,07,10,04,18,15.10
2010,07,10,04,19,15.00
2010,07,10,04,20,15.00
2010,07,10,04,21,15.00
2010,07,10,04,22,15.00
2010,07,10,04,23,15.00
2010,07,10,04,24,15.00
2010,07,10,04,25,15.00
2010,07,10,04,26,15.00
2010,07,10,04,27,15.00
2010,07,10,04,28,15.00
2010,07,10,04,29,15.00
2010,07,10,04,30,15.00
2010,07,10,04,31,14.90
2010,07,10,04,32,14.90
2010,07,10,04,33,14.80
2010,07,10,04,34,14.80
2010,07,10,04,35,14.80
2010,07,10,04,36,14.80
2010,07,10,04,37,14.70
2010,07,10,04,38,14.70
2010,07,10,04,39,14.70
2010,07,10,04,40,14.70
2010,07,10,04,41,14.60
2010,07,10,04,42,14.60
2010,07,10,04,43,14.60
2010,07,10,04,44,14.60
2010,07,10,04,45,14.50
2010,07,10,04,46,14.50
2010,07,10,04,47,14.50
2010,07,10,04,48,14.40
2010,07,10,04,49,14.40
2010,07,10,04,50,14.40
2010,07,10,04,51,14.40
2010,07,10,04,52,14.40
2010,07,10,04,53,14.30
2010,07,10,04,54,14.30
2010,07,10,04,55,14.30
2010,07,10,04,56,14.30
2010,07,10,04,57,14.30
2010,07,10,04,58,14.30
2010,07,10,04,59,14.20
2010,07,10,05,00,14.20
2010,07,10,05,01,14.20
2010,07,10,05,02,14.20
2010,07,10,05,03,14.20
2010,07,10,05,04,14.20
2010,07,10,05,05,14.20
2010,07,10,05,06,14.20
2010,07,10,05,07,14.20
2010,07,10,05,08,14.10
2010,07,10,05,09,14.10
2010,07,10,05,10,14.10
2010,07,10,05,11,14.10
2010,07,10,05,12,14.10
2010,07,10,05,13,14.10
2010,07,10,05,14,14.10
2010,07,10,05,15,14.10
2010,07,10,05,16,14.10
2010,07,10,05,17,14.00
2010,07,10,05,18,14.00
2010,07,10,05,19,14.00
2010,07,10,05,20,14.00
2010,07,10,05,21,14.00
2010,07,10,05,22,14.00
2010,07,10,05,23,13.90
2010,07,10,05,24,13.90
2010,07,10,05,25,13.90
2010,07,10,05,26,13.90
2010,07,10,05,27,13.90
2010,07,10,05,28,13.90
2010,07,10,05,29,13.90
2010,07,10,05,30,13.90
2010,07,10,05,31,13.90
2010,07,10,05,32,13.90
2010,07,10,05,33,13.80
2010,07,10,05,34,13.80
2010,07,10,05,35,13.80
2010,07,10,05,36,13.80
2010,07,10,05,37,13.80
2010,07,10,05,38,13.80
2010,07,10,05,39,13.80
2010,07,10,05,40,13.80
2010,07,10,05,41,13.80
2010,07,10,05,42,13.80
2010,07,10,05,43,13.80
2010,07,10,05,44,13.80
2010,07,10,05,45,13.70
2010,07,10,05,46,13.70
2010,07,10,05,47,13.70
2010,07,10,05,48,13.70
2010,07,10,05,49,13.70
2010,07,10,05,50,13.70
2010,07,10,05,51,13.70
2010,07,10,05,52,13.70
2010,07,10,05,53,13.70
2010,07,10,05,54,13.70
2010,07,10,05,55,13.70
2010,07,10,05,56,13.70
2010,07,10,05,57,13.70
2010,07,10,05,58,13.70
2010,07,10,05,59,13.60
2010,07,10,06,00,13.60
2010,07,10,06,01,13.60
2010,07,10,06,02,13.60
2010,07,10,06,03,13.60
2010,07,10,06,04,13.60
2010,07,10,06,05,13.60
2010,07,10,06,06,13.60
2010,07,10,06,07,13.60
2010,07,10,06,08,13.60
2010,07,10,06,09,13.70
2010,07,10,06,10,13.70
2010,07,10,06,11,13.70
2010,07,10,06,12,13.70
2010,07,10,06,13,13.70
2010,07,10,06,14,13.70
2010,07,10,06,15,13.70
2010,07,10,06,16,13.70
2010,07,10,06,17,13.70
2010,07,10,06,18,13.70
2010,07,10,06,19,13.70
2010,07,10,06,20,13.70
2010,07,10,06,21,13.70
2010,07,10,06,22,13.70
2010,07,10,06,23,13.70
2010,07,10,06,24,13.70
2010,07,10,06,25,13.70
2010,07,10,06,26,13.70
2010,07,10,06,27,13.70
2010,07,10,06,28,13.70
2010,07,10,06,29,13.70
2010,07,10,06,30,13.70
2010,07,10,06,31,13.70
2010,07,10,06,32,13.70
2010,07,10,06,33,13.70
2010,07,10,06,34,13.70
2010,07,10,06,35,13.70
2010,07,10,06,36,13.70
2010,07,10,06,37,13.70
2010,07,10,06,38,13.70
2010,07,10,06,39,13.80
2010,07,10,06,40,13.80
2010,07,10,06,41,13.80
2010,07,10,06,42,13.80
2010,07,10,06,43,13.80
2010,07,10,06,44,13.80
2010,07,10,06,45,13.80
2010,07,10,06,46,13.80
2010,07,10,06,47,13.80
2010,07,10,06,48,13.90
2010,07,10,06,49,13.90
2010,07,10,06,50,13.90
2010,07,10,06,51,13.90
2010,07,10,06,52,13.90
2010,07,10,06,53,14.00
2010,07,10,06,54,14.00
2010,07,10,06,55,14.00
2010,07,10,06,56,14.10
2010,07,10,06,57,14.10
2010,07,10,06,58,14.10
2010,07,10,06,59,14.10
2010,07,10,07,00,14.10
2010,07,10,07,01,14.20
2010,07,10,07,02,14.20
2010,07,10,07,03,14.20
2010,07,10,07,04,14.30
2010,07,10,07,05,14.30
2010,07,10,07,06,14.30
2010,07,10,07,07,14.30
2010,07,10,07,08,14.40
2010,07,10,07,09,14.40
2010,07,10,07,10,14.40
2010,07,10,07,11,14.50
2010,07,10,07,12,14.50
2010,07,10,07,13,14.60
2010,07,10,07,14,14.60
2010,07,10,07,15,14.60
2010,07,10,07,16,14.70
2010,07,10,07,17,14.70
2010,07,10,07,18,14.80
2010,07,10,07,19,14.80
2010,07,10,07,20,14.80
2010,07,10,07,21,14.90
2010,07,10,07,22,14.90
2010,07,10,07,23,15.00
2010,07,10,07,24,15.00
2010,07,10,07,25,15.00
2010,07,10,07,26,15.00
2010,07,10,07,27,15.00
2010,07,10,07,28,15.10
2010,07,10,07,29,15.20
2010,07,10,07,30,15.50
2010,07,10,07,31,15.70
2010,07,10,07,32,16.00
2010,07,10,07,33,16.20
2010,07,10,07,34,16.40
2010,07,10,07,35,16.60
2010,07,10,07,36,16.80
2010,07,10,07,37,17.00
2010,07,10,07,38,17.10
2010,07,10,07,39,17.30
2010,07,10,07,40,17.40
2010,07,10,07,41,17.60
2010,07,10,07,42,17.70
2010,07,10,07,43,17.90
2010,07,10,07,44,18.00
2010,07,10,07,45,18.20
2010,07,10,07,46,18.30
2010,07,10,07,47,18.50
2010,07,10,07,48,18.60
2010,07,10,07,49,18.70
2010,07,10,07,50,18.80
2010,07,10,07,51,18.90
2010,07,10,07,52,19.00
2010,07,10,07,53,19.10
2010,07,10,07,54,19.30
2010,07,10,07,55,19.40
2010,07,10,07,56,19.50
2010,07,10,07,57,19.60
2010,07,10,07,58,19.70
2010,07,10,07,59,19.80
2010,07,10,08,00,19.90
2010,07,10,08,01,20.00
2010,07,10,08,02,20.10
2010,07,10,08,03,20.20
2010,07,10,08,04,20.30
2010,07,10,08,05,20.30
2010,07,10,08,06,20.30
2010,07,10,08,07,20.30
2010,07,10,08,08,20.30
2010,07,10,08,09,20.40
2010,07,10,08,10,20.40
2010,07,10,08,11,20.40
2010,07,10,08,12,20.40
2010,07,10,08,13,20.40
2010,07,10,08,14,20.40
2010,07,10,08,15,20.50
2010,07,10,08,16,20.60
2010,07,10,08,17,20.60
2010,07,10,08,18,20.70
2010,07,10,08,19,20.80
2010,07,10,08,20,20.80
2010,07,10,08,21,20.90
2010,07,10,08,22,21.00
2010,07,10,08,23,21.00
2010,07,10,08,24,21.10
2010,07,10,08,25,21.10
2010,07,10,08,26,21.20
2010,07,10,08,27,21.20
2010,07,10,08,28,21.30
2010,07,10,08,29,21.30
2010,07,10,08,30,21.30
2010,07,10,08,31,21.30
2010,07,10,08,32,21.30
2010,07,10,08,33,21.40
2010,07,10,08,34,21.40
2010,07,10,08,35,21.50
2010,07,10,08,36,21.50
2010,07,10,08,37,21.50
2010,07,10,08,38,21.60
2010,07,10,08,39,21.60
2010,07,10,08,40,21.60
2010,07,10,08,41,21.50
2010,07,10,08,42,21.50
2010,07,10,08,43,21.50
2010,07,10,08,44,21.50
2010,07,10,08,45,21.40
2010,07,10,08,46,21.30
2010,07,10,08,47,21.30
2010,07,10,08,48,21.30
2010,07,10,08,49,21.30
2010,07,10,08,50,21.30
2010,07,10,08,51,21.30
2010,07,10,08,52,21.40
2010,07,10,08,53,21.40
2010,07,10,08,54,21.40
2010,07,10,08,55,21.40
2010,07,10,08,56,21.50
2010,07,10,08,57,21.50
2010,07,10,08,58,21.60
2010,07,10,08,59,21.70
2010,07,10,09,00,21.80
2010,07,10,09,01,21.90
2010,07,10,09,02,22.00
2010,07,10,09,03,22.10
2010,07,10,09,04,22.10
2010,07,10,09,05,22.20
2010,07,10,09,06,22.30
2010,07,10,09,07,22.30
2010,07,10,09,08,22.30
2010,07,10,09,09,22.30
2010,07,10,09,10,22.20
2010,07,10,09,11,22.10
2010,07,10,09,12,22.10
2010,07,10,09,13,22.00
2010,07,10,09,14,22.10
2010,07,10,09,15,22.10
2010,07,10,09,16,22.20
2010,07,10,09,17,22.30
2010,07,10,09,18,22.30
2010,07,10,09,19,22.30
2010,07,10,09,20,22.30
2010,07,10,09,21,22.30
2010,07,10,09,22,22.30
2010,07,10,09,23,22.40
2010,07,10,09,24,22.40
2010,07,10,09,25,22.40
2010,07,10,09,26,22.40
2010,07,10,09,27,22.50
2010,07,10,09,28,22.60
2010,07,10,09,29,22.70
2010,07,10,09,30,22.70
2010,07,10,09,31,22.70
2010,07,10,09,32,22.70
2010,07,10,09,33,22.70
2010,07,10,09,34,22.80
2010,07,10,09,35,22.80
2010,07,10,09,36,22.70
2010,07,10,09,37,22.70
2010,07,10,09,38,22.70
2010,07,10,09,39,22.70
2010,07,10,09,40,22.70
2010,07,10,09,41,22.70
2010,07,10,09,42,22.70
2010,07,10,09,43,22.70
2010,07,10,09,44,22.70
2010,07,10,09,45,22.70
2010,07,10,09,46,22.70
2010,07,10,09,47,22.70
2010,07,10,09,48,22.60
2010,07,10,09,49,22.50
2010,07,10,09,50,22.50
2010,07,10,09,51,22.40
2010,07,10,09,52,22.30
2010,07,10,09,53,22.20
2010,07,10,09,54,22.20
2010,07,10,09,55,22.20
2010,07,10,09,56,22.30
2010,07,10,09,57,22.30
2010,07,10,09,58,22.40
2010,07,10,09,59,22.40
2010,07,10,10,00,22.40
2010,07,10,10,01,22.40
2010,07,10,10,02,22.40
2010,07,10,10,03,22.50
2010,07,10,10,04,22.50
2010,07,10,10,05,22.60
2010,07,10,10,06,22.60
2010,07,10,10,07,22.70
2010,07,10,10,08,22.80
2010,07,10,10,09,22.80
2010,07,10,10,10,22.80
2010,07,10,10,11,22.90
2010,07,10,10,12,23.00
2010,07,10,10,13,23.10
2010,07,10,10,14,23.20
2010,07,10,10,15,23.20
2010,07,10,10,16,23.30
2010,07,10,10,17,23.30
2010,07,10,10,18,23.30
2010,07,10,10,19,23.30
2010,07,10,10,20,23.30
2010,07,10,10,21,23.10
2010,07,10,10,22,22.90
2010,07,10,10,23,22.70
2010,07,10,10,24,22.60
2010,07,10,10,25,22.50
2010,07,10,10,26,22.50
2010,07,10,10,27,22.50
2010,07,10,10,28,22.50
2010,07,10,10,29,22.60
2010,07,10,10,30,22.60
2010,07,10,10,31,22.60
2010,07,10,10,32,22.50
2010,07,10,10,33,22.50
2010,07,10,10,34,22.60
2010,07,10,10,35,22.60
2010,07,10,10,36,22.70
2010,07,10,10,37,22.70
2010,07,10,10,38,22.80
2010,07,10,10,39,22.80
2010,07,10,10,40,22.80
2010,07,10,10,41,22.90
2010,07,10,10,42,22.90
2010,07,10,10,43,22.90
2010,07,10,10,44,23.00
2010,07,10,10,45,23.10
2010,07,10,10,46,23.20
2010,07,10,10,47,23.20
2010,07,10,10,48,23.20
2010,07,10,10,49,23.20
2010,07,10,10,50,23.20
2010,07,10,10,51,23.30
2010,07,10,10,52,23.20
2010,07,10,10,53,23.20
2010,07,10,10,54,23.10
2010,07,10,10,55,23.10
2010,07,10,10,56,23.00
2010,07,10,10,57,23.10
2010,07,10,10,58,23.10
2010,07,10,10,59,23.10
2010,07,10,11,00,23.20
2010,07,10,11,01,23.30
2010,07,10,11,02,23.30
2010,07,10,11,03,23.20
2010,07,10,11,04,23.10
2010,07,10,11,05,23.00
2010,07,10,11,06,23.10
2010,07,10,11,07,23.10
2010,07,10,11,08,23.10
2010,07,10,11,09,23.20
2010,07,10,11,10,23.20
2010,07,10,11,11,23.30
2010,07,10,11,12,23.30
2010,07,10,11,13,23.30
2010,07,10,11,14,23.30
2010,07,10,11,15,23.40
2010,07,10,11,16,23.40
2010,07,10,11,17,23.40
2010,07,10,11,18,23.50
2010,07,10,11,19,23.50
2010,07,10,11,20,23.60
2010,07,10,11,21,23.70
2010,07,10,11,22,23.80
2010,07,10,11,23,23.80
2010,07,10,11,24,23.70
2010,07,10,11,25,23.80
2010,07,10,11,26,23.70
2010,07,10,11,27,23.70
2010,07,10,11,28,23.70
2010,07,10,11,29,23.70
2010,07,10,11,30,23.70
2010,07,10,11,31,23.70
2010,07,10,11,32,23.70
2010,07,10,11,33,23.60
2010,07,10,11,34,23.50
2010,07,10,11,35,23.40
2010,07,10,11,36,23.30
2010,07,10,11,37,23.30
2010,07,10,11,38,23.30
2010,07,10,11,39,23.30
2010,07,10,11,40,23.40
2010,07,10,11,41,23.40
2010,07,10,11,42,23.50
2010,07,10,11,43,23.60
2010,07,10,11,44,23.70
2010,07,10,11,45,23.70
2010,07,10,11,46,23.60
2010,07,10,11,47,23.50
2010,07,10,11,48,23.30
2010,07,10,11,49,23.30
2010,07,10,11,50,23.30
2010,07,10,11,51,23.40
2010,07,10,11,52,23.40
2010,07,10,11,53,23.40
2010,07,10,11,54,23.50
2010,07,10,11,55,23.60
2010,07,10,11,56,23.60
2010,07,10,11,57,23.60
2010,07,10,11,58,23.70
2010,07,10,11,59,23.80
2010,07,10,12,00,23.80
2010,07,10,12,01,23.90
2010,07,10,12,02,23.90
2010,07,10,12,03,23.90
2010,07,10,12,04,23.80
2010,07,10,12,05,23.80
2010,07,10,12,06,23.90
2010,07,10,12,07,23.80
2010,07,10,12,08,23.70
2010,07,10,12,09,23.70
2010,07,10,12,10,23.60
2010,07,10,12,11,23.60
2010,07,10,12,12,23.70
2010,07,10,12,13,23.70
2010,07,10,12,14,23.80
2010,07,10,12,15,23.80
2010,07,10,12,16,23.90
2010,07,10,12,17,23.90
2010,07,10,12,18,23.90
2010,07,10,12,19,23.80
2010,07,10,12,20,23.80
2010,07,10,12,21,23.80
2010,07,10,12,22,23.80
2010,07,10,12,23,23.80
2010,07,10,12,24,23.70
2010,07,10,12,25,23.60
2010,07,10,12,26,23.40
2010,07,10,12,27,23.40
2010,07,10,12,28,23.30
2010,07,10,12,29,23.30
2010,07,10,12,30,23.30
2010,07,10,12,31,23.20
2010,07,10,12,32,23.20
2010,07,10,12,33,23.20
2010,07,10,12,34,23.20
2010,07,10,12,35,23.30
2010,07,10,12,36,23.40
2010,07,10,12,37,23.50
2010,07,10,12,38,23.60
2010,07,10,12,39,23.70
2010,07,10,12,40,23.70
2010,07,10,12,41,23.70
2010,07,10,12,42,23.70
2010,07,10,12,43,23.80
2010,07,10,12,44,23.80
2010,07,10,12,45,23.90
2010,07,10,12,46,23.90
2010,07,10,12,47,24.10
2010,07,10,12,48,24.20
2010,07,10,12,49,24.30
2010,07,10,12,50,24.40
2010,07,10,12,51,24.50
2010,07,10,12,52,24.60
2010,07,10,12,53,24.70
2010,07,10,12,54,24.80
2010,07,10,12,55,24.90
2010,07,10,12,56,24.90
2010,07,10,12,57,24.80
2010,07,10,12,58,24.70
2010,07,10,12,59,24.50
2010,07,10,13,00,24.40
2010,07,10,13,01,24.40
2010,07,10,13,02,24.40
2010,07,10,13,03,24.40
2010,07,10,13,04,24.50
2010,07,10,13,05,24.60
2010,07,10,13,06,24.60
2010,07,10,13,07,24.70
2010,07,10,13,08,24.70
2010,07,10,13,09,24.80
2010,07,10,13,10,24.80
2010,07,10,13,11,24.80
2010,07,10,13,12,24.90
2010,07,10,13,13,24.90
2010,07,10,13,14,24.90
2010,07,10,13,15,25.00
2010,07,10,13,16,25.10
2010,07,10,13,17,25.20
2010,07,10,13,18,25.30
2010,07,10,13,19,25.40
2010,07,10,13,20,25.30
2010,07,10,13,21,25.30
2010,07,10,13,22,25.30
2010,07,10,13,23,25.30
2010,07,10,13,24,25.10
2010,07,10,13,25,25.00
2010,07,10,13,26,24.90
2010,07,10,13,27,24.80
2010,07,10,13,28,24.80
2010,07,10,13,29,24.80
2010,07,10,13,30,24.90
2010,07,10,13,31,25.00
2010,07,10,13,32,25.00
2010,07,10,13,33,25.00
2010,07,10,13,34,25.00
2010,07,10,13,35,24.90
2010,07,10,13,36,24.90
2010,07,10,13,37,24.90
2010,07,10,13,38,24.90
2010,07,10,13,39,24.90
2010,07,10,13,40,24.90
2010,07,10,13,41,25.00
2010,07,10,13,42,25.10
2010,07,10,13,43,25.20
2010,07,10,13,44,25.20
2010,07,10,13,45,25.20
2010,07,10,13,46,25.20
2010,07,10,13,47,25.20
2010,07,10,13,48,25.20
2010,07,10,13,49,25.20
2010,07,10,13,50,25.20
2010,07,10,13,51,25.20
2010,07,10,13,52,25.20
2010,07,10,13,53,25.20
2010,07,10,13,54,25.20
2010,07,10,13,55,25.10
2010,07,10,13,56,25.10
2010,07,10,13,57,25.10
2010,07,10,13,58,25.10
2010,07,10,13,59,25.10
2010,07,10,14,00,25.20
2010,07,10,14,01,25.30
2010,07,10,14,02,25.30
2010,07,10,14,03,25.30
2010,07,10,14,04,25.20
2010,07,10,14,05,25.20
2010,07,10,14,06,25.20
2010,07,10,14,07,25.20
2010,07,10,14,08,25.20
2010,07,10,14,09,25.20
2010,07,10,14,10,25.20
2010,07,10,14,11,25.30
2010,07,10,14,12,25.40
2010,07,10,14,13,25.30
2010,07,10,14,14,25.30
2010,07,10,14,15,25.20
2010,07,10,14,16,25.00
2010,07,10,14,17,25.00
2010,07,10,14,18,24.90
2010,07,10,14,19,24.90
2010,07,10,14,20,24.90
2010,07,10,14,21,24.90
2010,07,10,14,22,25.00
2010,07,10,14,23,25.10
2010,07,10,14,24,25.20
2010,07,10,14,25,25.30
2010,07,10,14,26,25.30
2010,07,10,14,27,25.30
2010,07,10,14,28,25.20
2010,07,10,14,29,25.20
2010,07,10,14,30,25.30
2010,07,10,14,31,25.30
2010,07,10,14,32,25.40
2010,07,10,14,33,25.50
2010,07,10,14,34,25.40
2010,07,10,14,35,25.30
2010,07,10,14,36,25.20
2010,07,10,14,37,25.20
2010,07,10,14,38,25.20
2010,07,10,14,39,25.30
2010,07,10,14,40,25.40
2010,07,10,14,41,25.50
2010,07,10,14,42,25.70
2010,07,10,14,43,25.90
2010,07,10,14,44,26.00
2010,07,10,14,45,26.10
2010,07,10,14,46,26.20
2010,07,10,14,47,26.10
2010,07,10,14,48,26.10
2010,07,10,14,49,26.10
2010,07,10,14,50,26.10
2010,07,10,14,51,26.10
2010,07,10,14,52,26.00
2010,07,10,14,53,25.90
2010,07,10,14,54,25.90
2010,07,10,14,55,26.00
2010,07,10,14,56,26.10
2010,07,10,14,57,26.20
2010,07,10,14,58,26.20
2010,07,10,14,59,26.30
2010,07,10,15,00,26.40
2010,07,10,15,01,26.30
2010,07,10,15,02,26.30
2010,07,10,15,03,26.20
2010,07,10,15,04,26.10
2010,07,10,15,05,26.00
2010,07,10,15,06,26.10
2010,07,10,15,07,26.10
2010,07,10,15,08,26.00
2010,07,10,15,09,25.90
2010,07,10,15,10,25.90
2010,07,10,15,11,26.00
2010,07,10,15,12,26.10
2010,07,10,15,13,26.20
2010,07,10,15,14,26.30
2010,07,10,15,15,26.40
2010,07,10,15,16,26.40
2010,07,10,15,17,26.40
2010,07,10,15,18,26.30
2010,07,10,15,19,26.30
2010,07,10,15,20,26.30
2010,07,10,15,21,26.40
2010,07,10,15,22,26.50
2010,07,10,15,23,26.70
2010,07,10,15,24,26.80
2010,07,10,15,25,26.90
2010,07,10,15,26,26.90
2010,07,10,15,27,26.90
2010,07,10,15,28,26.90
2010,07,10,15,29,26.90
2010,07,10,15,30,26.80
2010,07,10,15,31,26.80
2010,07,10,15,32,26.80
2010,07,10,15,33,26.80
2010,07,10,15,34,26.80
2010,07,10,15,35,26.80
2010,07,10,15,36,26.70
2010,07,10,15,37,26.70
2010,07,10,15,38,26.60
2010,07,10,15,39,26.50
2010,07,10,15,40,26.40
2010,07,10,15,41,26.30
2010,07,10,15,42,26.40
2010,07,10,15,43,26.30
2010,07,10,15,44,26.30
2010,07,10,15,45,26.30
2010,07,10,15,46,26.30
2010,07,10,15,47,26.30
2010,07,10,15,48,26.40
2010,07,10,15,49,26.50
2010,07,10,15,50,26.50
2010,07,10,15,51,26.60
2010,07,10,15,52,26.60
2010,07,10,15,53,26.60
2010,07,10,15,54,26.60
2010,07,10,15,55,26.60
2010,07,10,15,56,26.50
2010,07,10,15,57,26.50
2010,07,10,15,58,26.50
2010,07,10,15,59,26.40
2010,07,10,16,00,26.40
2010,07,10,16,01,26.40
2010,07,10,16,02,26.40
2010,07,10,16,03,26.50
2010,07,10,16,04,26.60
2010,07,10,16,05,26.60
2010,07,10,16,06,26.70
2010,07,10,16,07,26.70
2010,07,10,16,08,26.80
2010,07,10,16,09,26.80
2010,07,10,16,10,26.90
2010,07,10,16,11,26.90
2010,07,10,16,12,26.80
2010,07,10,16,13,26.50
2010,07,10,16,14,26.30
2010,07,10,16,15,26.10
2010,07,10,16,16,26.00
2010,07,10,16,17,25.90
2010,07,10,16,18,25.90
2010,07,10,16,19,25.80
2010,07,10,16,20,25.80
2010,07,10,16,21,25.80
2010,07,10,16,22,25.70
2010,07,10,16,23,25.70
2010,07,10,16,24,25.70
2010,07,10,16,25,25.70
2010,07,10,16,26,25.70
2010,07,10,16,27,25.70
2010,07,10,16,28,25.80
2010,07,10,16,29,25.90
2010,07,10,16,30,25.90
2010,07,10,16,31,25.90
2010,07,10,16,32,26.00
2010,07,10,16,33,26.10
2010,07,10,16,34,26.20
2010,07,10,16,35,26.20
2010,07,10,16,36,26.30
2010,07,10,16,37,26.30
2010,07,10,16,38,26.20
2010,07,10,16,39,26.20
2010,07,10,16,40,26.10
2010,07,10,16,41,26.10
2010,07,10,16,42,26.10
2010,07,10,16,43,26.10
2010,07,10,16,44,26.10
2010,07,10,16,45,26.10
2010,07,10,16,46,26.00
2010,07,10,16,47,26.00
2010,07,10,16,48,26.00
2010,07,10,16,49,25.90
2010,07,10,16,50,25.90
2010,07,10,16,51,25.90
2010,07,10,16,52,25.90
2010,07,10,16,53,25.90
2010,07,10,16,54,25.90
2010,07,10,16,55,25.90
2010,07,10,16,56,25.90
2010,07,10,16,57,25.90
2010,07,10,16,58,25.90
2010,07,10,16,59,25.90
2010,07,10,17,00,25.90
2010,07,10,17,01,25.90
2010,07,10,17,02,25.90
2010,07,10,17,03,25.90
2010,07,10,17,04,25.90
2010,07,10,17,05,25.90
2010,07,10,17,06,25.90
2010,07,10,17,07,25.90
2010,07,10,17,08,25.90
2010,07,10,17,09,26.00
2010,07,10,17,10,25.90
2010,07,10,17,11,25.90
2010,07,10,17,12,25.90
2010,07,10,17,13,25.90
2010,07,10,17,14,25.90
2010,07,10,17,15,25.90
2010,07,10,17,16,25.90
2010,07,10,17,17,25.90
2010,07,10,17,18,25.90
2010,07,10,17,19,25.90